When you browse on this site, cookies collect data to enhance your experience and personalize the content and advertising you see.
Visit our Privacy Policy to learn more. By continuing to use the site, you agree to this use of cookies and data.
  • In Hungary
  • List of Countries
  • For 7 days
  • Water Temperature
  • Satellite Maps
  • Weather Map
  • News
  • Weather Widgets
  • user-avatar
    Login

    Hourly Weather Zabolotne

    Today, 19 January, Saturday

    Time Temperature Precipitation Wind Pressure Humidity
    00:00 -1°C° 0 mm 1 mps 745 mmHg 90%
    01:00 -2°C° 0 mm 1 mps 745 mmHg 83%
    02:00 -2°C° 0 mm 1 mps 746 mmHg 80%
    03:00 -5°C° 0 mm 2 mps 746 mmHg 77%
    04:00 -5°C° 0 mm 2 mps 746 mmHg 73%
    05:00 -7°C° 0 mm 3 mps 746 mmHg 71%
    06:00 -7°C° 0 mm 3 mps 747 mmHg 69%
    07:00 -7°C° 0 mm 3 mps 747 mmHg 68%
    08:00 -6°C° 0 mm 2 mps 747 mmHg 67%
    09:00 -7°C° 0 mm 2 mps 748 mmHg 68%
    10:00 -6°C° 0 mm 2 mps 748 mmHg 71%
    11:00 -4°C° 0 mm 1 mps 748 mmHg 79%
    12:00 -3°C° 0 mm 1 mps 749 mmHg 86%
    13:00 -1°C° 0 mm 1 mps 748 mmHg 89%
    14:00 -1°C° 0 mm 1 mps 748 mmHg 89%
    15:00 0°C° 0 mm 1 mps 748 mmHg 91%
    16:00 0°C° 0 mm 1 mps 748 mmHg 93%
    17:00 -1°C° 0 mm 1 mps 748 mmHg 83%
    18:00 -3°C° 0 mm 2 mps 748 mmHg 73%
    19:00 -5°C° 0 mm 3 mps 747 mmHg 72%
    20:00 -5°C° 0 mm 3 mps 747 mmHg 76%
    21:00 -5°C° 0 mm 3 mps 747 mmHg 78%
    22:00 -5°C° 0 mm 4 mps 747 mmHg 79%
    23:00 -5°C° 0 mm 4 mps 747 mmHg 78%

    Tomorrow, 20 January, Sunday

    Time Temperature Precipitation Wind Pressure Humidity
    00:00 -4°C° 0 mm 4 mps 747 mmHg 80%
    01:00 -4°C° 0 mm 4 mps 746 mmHg 86%
    02:00 -4°C° 0 mm 4 mps 746 mmHg 87%
    03:00 -4°C° 0 mm 4 mps 746 mmHg 88%
    04:00 -4°C° 0 mm 4 mps 745 mmHg 87%
    05:00 -3°C° 0 mm 4 mps 745 mmHg 87%
    06:00 -3°C° 0 mm 4 mps 744 mmHg 92%
    07:00 -2°C° 0.1 mm 3 mps 744 mmHg 94%
    08:00 -2°C° 0.2 mm 3 mps 744 mmHg 95%
    09:00 -1°C° 0.1 mm 3 mps 743 mmHg 95%
    10:00 -1°C° 0.3 mm 3 mps 743 mmHg 96%
    11:00 -1°C° 0.9 mm 3 mps 743 mmHg 97%
    12:00 0°C° 1 mm 3 mps 742 mmHg 98%
    13:00 0°C° 0.7 mm 3 mps 742 mmHg 99%
    14:00 +1°C° 1.6 mm 2 mps 741 mmHg 100%
    15:00 +1°C° 0.8 mm 2 mps 741 mmHg 100%
    16:00 +2°C° 1.3 mm 1 mps 741 mmHg 100%
    17:00 -1°C° 0.5 mm 2 mps 741 mmHg 100%
    18:00 -1°C° 0.4 mm 2 mps 741 mmHg 100%
    19:00 -1°C° 0.4 mm 2 mps 741 mmHg 100%
    20:00 +1°C° 0.5 mm 1 mps 742 mmHg 100%
    21:00 +1°C° 0.8 mm 1 mps 742 mmHg 100%
    22:00 +1°C° 0.8 mm 1 mps 742 mmHg 100%
    23:00 +1°C° 0.7 mm 1 mps 742 mmHg 100%

    Day after tomorrow, 21 January, Monday

    Time Temperature Precipitation Wind Pressure Humidity
    00:00 +1°C° 0.8 mm 1 mps 742 mmHg 100%
    01:00 +1°C° 0.7 mm 1 mps 743 mmHg 100%
    02:00 -2°C° 0.5 mm 2 mps 743 mmHg 99%
    03:00 -2°C° 0.2 mm 2 mps 743 mmHg 95%
    04:00 -2°C° 0.1 mm 3 mps 743 mmHg 92%
    05:00 -2°C° 0.1 mm 3 mps 744 mmHg 89%
    06:00 -2°C° 0 mm 3 mps 744 mmHg 87%
    07:00 -2°C° 0 mm 2 mps 744 mmHg 82%
    08:00 0°C° 0 mm 1 mps 745 mmHg 77%
    09:00 0°C° 0 mm 1 mps 745 mmHg 83%
    10:00 0°C° 0 mm 1 mps 746 mmHg 87%
    11:00 0°C° 0 mm 1 mps 746 mmHg 89%
    12:00 +1°C° 0 mm 1 mps 747 mmHg 86%
    13:00 0°C° 0 mm 0 mps 747 mmHg 86%
    14:00 +1°C° 0 mm 1 mps 747 mmHg 87%
    15:00 +1°C° 0 mm 1 mps 747 mmHg 93%
    16:00 +1°C° 0 mm 1 mps 747 mmHg 98%
    17:00 -1°C° 0 mm 0 mps 747 mmHg 97%
    18:00 -2°C° 0 mm 0 mps 747 mmHg 94%
    19:00 -1°C° 0 mm 1 mps 748 mmHg 87%
    20:00 -3°C° 0 mm 0 mps 748 mmHg 85%
    21:00 -5°C° 0 mm 2 mps 748 mmHg 83%
    22:00 -7°C° 0 mm 3 mps 748 mmHg 81%
    23:00 -8°C° 0 mm 4 mps 748 mmHg 77%

    22 January, Tuesday

    Time Temperature Precipitation Wind Pressure Humidity
    00:00 -8°C° 0 mm 4 mps 748 mmHg 75%
    01:00 -8°C° 0 mm 4 mps 748 mmHg 75%
    02:00 -9°C° 0 mm 4 mps 748 mmHg 75%
    03:00 -9°C° 0 mm 4 mps 747 mmHg 74%
    04:00 -8°C° 0 mm 3 mps 747 mmHg 73%
    05:00 -8°C° 0 mm 3 mps 747 mmHg 73%
    06:00 -8°C° 0 mm 3 mps 746 mmHg 73%
    07:00 -9°C° 0 mm 4 mps 746 mmHg 73%
    08:00 -9°C° 0 mm 4 mps 746 mmHg 74%
    09:00 -9°C° 0 mm 4 mps 745 mmHg 76%
    10:00 -8°C° 0 mm 4 mps 745 mmHg 79%
    11:00 -5°C° 0 mm 4 mps 745 mmHg 81%
    12:00 -4°C° 0 mm 4 mps 745 mmHg 81%
    13:00 -3°C° 0 mm 4 mps 744 mmHg 82%
    14:00 -2°C° 0 mm 3 mps 743 mmHg 83%

    23 January, Wednesday

    Time Temperature Precipitation Wind Pressure Humidity

    24 January, Thursday

    Time Temperature Precipitation Wind Pressure Humidity
    Show more